Regional Weather Roundup
Issued by NWS

Home | Current Version | Previous Version | Graphics & Text | Print | Product List | Glossary On
Versions: 1 2 3 4 5 6 7 8 9 10 11 12 13 14 15 16 17 18 19 20 21 22 23 24 25 26 27
000
ASUS45 KBOU 202007
RWRCO

WEATHER ROUNDUP FOR COLORADO
NATIONAL WEATHER SERVICE DENVER/BOULDER CO
100 PM MST MON FEB 20 2017

NOTE: "FAIR" INDICATES FEW OR NO CLOUDS BELOW 12000 FEET WITH NO
SIGNIFICANT WEATHER AND/OR OBSTRUCTIONS TO VISIBILITY.

COZ001>005-013-030-031-202100-
...NORTHWEST COLORADO...

CITY           SKY/WX    TMP DP  RH WIND       PRES   REMARKS
CRAIG          CLOUDY    43  32  65 E6        30.16F
HAYDEN         FAIR      36  28  75 NE6       30.16F
MEEKER         CLOUDY    47  35  63 S17       30.17F
MOUNT WERNER   NOT AVBL
STEAMBOAT SPGS FAIR      35  29  78 CALM      30.18S
WALDEN         NOT AVBL
$$

COZ006>008-011-202100-
...WEST CENTRAL VALLEYS...

CITY           SKY/WX    TMP DP  RH WIND       PRES   REMARKS
GRAND JUNCTION FAIR      51  40  65 NW8       30.20S
MONTROSE       FAIR      51  29  42 VRB5      30.21F
EAGLE          MOSUNNY   46  27  46 W10G24    30.22F
RIFLE          FAIR      50  30  46 VRB5      30.19F
DELTA          FAIR      54  33  45 NE5       30.21F
NUCLA          FAIR      50  34  53 W10G18    30.27S
$$

COZ017>023-064>068-202100-
...SOUTHWEST COLORADO...

CITY           SKY/WX    TMP DP  RH WIND       PRES   REMARKS
DURANGO        FAIR      46  30  53 SW5       30.24F
CORTEZ         FAIR      48  35  60 VRB6      30.26F
PAGOSA SPRINGS FAIR      41  27  57 S3        30.27S
TELLURIDE      FAIR      42  11  28 CALM      30.27
WOLF CREEK PAS FAIR      28  14  54 SW9       30.33S WCI  20
$$

COZ009-010-012-014-032>034-037-058>063-202100-
...CENTRAL COLORADO...

CITY           SKY/WX    TMP DP  RH WIND       PRES   REMARKS
ASPEN          FAIR      43  18  36 N8        30.20F
BUENA VISTA    FAIR      48  11  23 W15G28    30.14F
COPPER MTN     NOT AVBL
BERTHOUD PASS  FAIR      18   7  62 NW33G44   30.18S WCI  -3
COTTONWOOD PAS FAIR      37   5  25 SW33G52   30.16F
GUNNISON       FAIR      35  24  64 E6        30.26F WCI  30
KREMMLING      FAIR      46  28  49 SW9G17    30.19F
LEADVILLE      FAIR      34  12  40 NW12      30.21S WCI  25
MONARCH PASS   FAIR      19  18  93 W40G52    30.31S WCI  -2
SALIDA         FAIR      51  12  21 W23G32    30.22S
SUNLIGHT       NOT AVBL
WILKERSON PASS FAIR      32   5  32 W14G30    30.20F WCI  22
$$

COZ069>075-202100-
...SAN LUIS VALLEY/SANGRE DE CRISTO MOUNTAINS...

CITY           SKY/WX    TMP DP  RH WIND       PRES   REMARKS
ALAMOSA        FAIR      45  19  35 S7        30.19F
LA VETA PASS   FAIR      37  16  41 NE22G31   30.20R
SAGUACHE       FAIR      50  18  27 NW22G31   30.18F
$$

COZ035-036-038>040-202100-
...NORTHERN COLORADO FRONT RANGE...

CITY           SKY/WX    TMP DP  RH WIND       PRES   REMARKS
DENVER INTL AP FAIR      58  12  16 CALM      30.00F
DMNS CITY PARK   N/A     60  10  14 SE6G14    29.99S
AURORA         MOSUNNY   58  12  16 W10       30.00F
FRONT RANGE AP NOT AVBL
ERIE MUNI ARPT FAIR      61   9  13 E6        29.97F
BOULDER MUN AP FAIR      61  14  16 NW5       29.98R
CENTENNIAL     FAIR      55   9  16 VRB5      30.00F
BROOMFIELD     MOSUNNY   59  10  14 W25G32    30.00S
FORT COLLINS   FAIR      61  14  16 S12G21    29.97S
LONGMONT       FAIR      63  12  13 SW24G30   29.98S
$$

COZ041-046-047-076>085-087-088-202100-
...PIKES PEAK/PALMER DIVIDE AND SOUTHERN FOOTHILLS...

CITY           SKY/WX    TMP DP  RH WIND       PRES   REMARKS
COLO. SPRINGS  FAIR      56   4  12 S9        30.05F
A. F. ACADEMY  FAIR      57   6  12 SW17G24   30.01F
SCHRIEVER AFB  FAIR      55   4  13 CALM      30.05F
ELLICOTT       FAIR     N/A N/A N/A NW7       30.04S
FALCON         FAIR      55   5  13 S13       30.06F
FORT CARSON    FAIR      58   5  12 SE10      30.03F
LIMON          FAIR      57  11  16 NW18G25   30.01F
MONUMENT HILL  FAIR      50   9  18 S3        30.06F
TRINIDAD       FAIR      59   4  11 N13       30.07S
$$

COZ042>045-048>051-090-091-202100-
...NORTHEAST COLORADO...

CITY           SKY/WX    TMP DP  RH WIND       PRES   REMARKS
GREELEY ARPT   FAIR      63  17  17 S15       29.98S
AKRON          FAIR      59   8  13 N24       29.97S
BURLINGTON     NOT AVBL
WRAY           NOT AVBL
STERLING       FAIR      61  14  16 NW17G26   29.94S
HOLYOKE        FAIR      63  19  19 N17G28    29.93F
FORT MORGAN    FAIR      62  12  14 NW17G23   29.97F
$$

COZ086-089-092>099-202100-
...SOUTHEAST COLORADO...

CITY           SKY/WX    TMP DP  RH WIND       PRES   REMARKS
PUEBLO         FAIR      63   7  11 SE13      30.01F
LA JUNTA       FAIR      65   6  10 NW14G24   30.01F
LAMAR          FAIR      66   9  10 N17G30    29.95F
SPRINGFIELD      N/A     62  11  13 N23G30    30.00S
$$




USA.gov is the U.S. government's official web portal to all federal, state and local government web resources and services.